Location: Unspecified
(35.6961°N, 0.0000°E)
Time: 12:02:56
(UTC+00:00)

Altair - Pass Details

Date: 22 May 2019
Orbit: 1501 x 1683 km, 47.2° (Epoch: 19 June)

Event Time Altitude Azimuth Distance (km) Brightness Sun altitude
Rises 05:43:59 0° 265° (W) 4,921 9.5 9.2°
Reaches altitude 10° 05:47:19 10° 271° (W) 3,941 9.1 9.9°
Maximum altitude 05:57:06 49° 344° (NNW) 2,068 8.4 11.8°
Drops below altitude 10° 06:06:48 10° 58° (ENE) 3,903 11.5 13.7°
Sets 06:10:06 0° 64° (ENE) 4,871 11.9 14.3°
